Volver al catálogo

FENGYUN 1C DEB

ActivoSSO
NORAD 30768·DEBRIS·🇨🇳 China

Lanzado May 10, 1999 desde Taiyuan Satellite Launch Center

Loading…

Próximos Pases (próximas 24 horas)

TLE

ActualizadoSource: Space-Track

Época: Sep 14, 2026, 12:53 UTC

1 30768U 99025AUE 26257.53743936  .00003907  00000-0  98652-3 0  9993
2 30768  98.6164 358.3792 0022406 342.0679 151.4675 14.51475800 18689

Sigue FENGYUN 1C DEB en tiempo real con AllMySat

Download on the App Store